Weather History for KGON - May, 2012

Change the Weather History Date:

Wednesday, May 2, 2012

  Actual Average Record
Temperature  
Mean Temperature 50 °F -  
Max Temperature 55 °F 63 °F 82 °F (2001)
Min Temperature 46 °F 44 °F 33 °F (1964)
Degree Days  
Heating Degree Days 14    
Moisture  
Dew Point 46 °F    
Average Humidity 85    
Maximum Humidity 93    
Minimum Humidity 72    
Precipitation  
Precipitation 0.00 in - - ()
Sea Level Pressure  
Sea Level Pressure 30.17 in    
Wind  
Wind Speed 9 mph (East)    
Max Wind Speed 15 mph    
Max Gust Speed 21 mph    
Visibility 10 miles    
Events      
Averages and records for this station are not official NWS values.
T = Trace of Precipitation, MM = Missing Value Source: NWS Daily Summary

Daily Weather History Graph

Daily Weather History Graph

Search for Another Location

Airport or City:

Trip Planner

Search our weather history database for the weather conditions in past years. The results will help you decide how hot, cold, wet, or windy it might be!

Date:

Astronomy

May. 02, 2012 Rise Set
Actual Time 5:43 AM EDT 7:47 PM EDT
Civil Twilight 5:13 AM EDT 8:17 PM EDT
Nautical Twilight 4:36 AM EDT 8:54 PM EDT
Astronomical Twilight 3:56 AM EDT 9:35 PM EDT
Moon 3:54 PM EDT (5/2) 3:14 AM EDT (5/2)
Length of Visible Light 15h 03m
Length of Day
14h 03m
Waxing Gibbous, 83% of the Moon is Illuminated
May 2
Waxing Gibbous
May 5
Full
May 12
Last Quarter
May 20
New
May 28
First Quarter

Hourly Weather History & Observations

Time (EDT) Temp. Windchill Dew Point Humidity Pressure Visibility Wind Dir Wind Speed Gust Speed Precip Events Conditions
12:56 AM 46.9 °F - 44.1 °F 90% 30.11 in 10.0 mi NNE 9.2 mph - N/A   Overcast
1:37 AM 46.4 °F 41.5 °F 42.8 °F 87% 30.11 in 10.0 mi NNE 10.4 mph - N/A   Scattered Clouds
1:52 AM 46.4 °F 44.3 °F 44.6 °F 93% 30.11 in 10.0 mi NE 4.6 mph - N/A   Mostly Cloudy
1:56 AM 46.9 °F - 44.1 °F 90% 30.11 in 10.0 mi NE 5.8 mph - N/A   Mostly Cloudy
2:56 AM 46.9 °F - 44.1 °F 90% 30.12 in 10.0 mi NNE 6.9 mph - N/A   Overcast
3:51 AM 46.4 °F 40.7 °F 42.8 °F 87% 30.13 in 10.0 mi NNE 12.7 mph - N/A   Overcast
3:56 AM 46.0 °F 40.2 °F 43.0 °F 89% 30.13 in 10.0 mi NNE 12.7 mph - N/A   Overcast
4:56 AM 46.0 °F 41.4 °F 43.0 °F 89% 30.14 in 10.0 mi NNE 9.2 mph - N/A   Overcast
5:56 AM 46.0 °F 42.5 °F 43.0 °F 89% 30.14 in 10.0 mi ENE 6.9 mph - N/A   Overcast
6:05 AM 46.4 °F 41.9 °F 42.8 °F 87% 30.15 in 10.0 mi NE 9.2 mph - N/A   Overcast
6:56 AM 46.9 °F - 43.0 °F 86% 30.16 in 10.0 mi NE 12.7 mph - N/A   Overcast
7:56 AM 48.0 °F - 44.1 °F 86% 30.16 in 10.0 mi NE 9.2 mph - N/A   Overcast
8:42 AM 50.0 °F - 44.6 °F 82% 30.18 in 10.0 mi NE 8.1 mph - N/A   Overcast
8:56 AM 50.0 °F - 44.1 °F 80% 30.18 in 10.0 mi NNE 6.9 mph - N/A   Overcast
9:56 AM 52.0 °F - 45.0 °F 77% 30.18 in 10.0 mi ENE 8.1 mph - N/A   Overcast
10:56 AM 53.1 °F - 46.0 °F 77% 30.19 in 10.0 mi East 9.2 mph - N/A   Overcast
11:56 AM 54.0 °F - 46.0 °F 75% 30.19 in 10.0 mi NE 10.4 mph - N/A   Overcast
12:56 PM 55.0 °F - 46.0 °F 72% 30.18 in 10.0 mi ENE 4.6 mph - N/A   Overcast
1:56 PM 55.0 °F - 46.9 °F 74% 30.17 in 10.0 mi Variable 5.8 mph - N/A   Overcast
2:56 PM 54.0 °F - 48.0 °F 80% 30.18 in 10.0 mi SE 9.2 mph - N/A   Overcast
3:56 PM 53.6 °F - 48.2 °F 82% 30.17 in 10.0 mi ESE 9.2 mph - N/A   Overcast
4:14 PM 53.6 °F - 48.2 °F 82% 30.17 in 10.0 mi SE 9.2 mph - N/A   Overcast
4:56 PM 54.0 °F - 48.0 °F 80% 30.17 in 10.0 mi ESE 9.2 mph - N/A   Overcast
5:56 PM 54.0 °F - 48.0 °F 80% 30.18 in 10.0 mi SE 4.6 mph - N/A   Overcast
6:56 PM 53.1 °F - 48.0 °F 83% 30.18 in 10.0 mi SSE 4.6 mph - N/A   Overcast
7:56 PM 52.0 °F - 48.0 °F 86% 30.19 in 10.0 mi ESE 4.6 mph - N/A   Overcast
8:42 PM 51.8 °F - 48.2 °F 88% 30.19 in 10.0 mi ESE 8.1 mph - N/A   Overcast
8:56 PM 51.8 °F - 48.2 °F 88% 30.19 in 10.0 mi ESE 10.4 mph - N/A   Overcast
9:36 PM 51.8 °F - 48.2 °F 88% 30.19 in 10.0 mi ESE 8.1 mph - N/A   Overcast
9:52 PM 51.8 °F - 48.2 °F 88% 30.19 in 10.0 mi ESE 8.1 mph - N/A   Overcast
9:56 PM 51.1 °F - 48.9 °F 92% 30.19 in 10.0 mi ESE 6.9 mph - N/A   Overcast
10:03 PM 51.8 °F - 48.2 °F 88% 30.20 in 10.0 mi ESE 6.9 mph - N/A   Overcast
10:28 PM 51.8 °F - 48.2 °F 88% 30.19 in 10.0 mi ESE 9.2 mph - N/A   Overcast
10:56 PM 51.1 °F - 48.0 °F 89% 30.17 in 10.0 mi East 12.7 mph - N/A   Overcast
11:18 PM 51.8 °F - 48.2 °F 88% 30.16 in 10.0 mi ESE 15.0 mph 20.7 mph N/A   Overcast
11:26 PM 51.8 °F - 48.2 °F 88% 30.17 in 10.0 mi East 11.5 mph 20.7 mph N/A   Overcast
11:56 PM 50.0 °F - 48.0 °F 93% 30.19 in 10.0 mi East 10.4 mph - N/A   Overcast